Location: アルンシュタイン
(50.0000°N, 10.0000°E)
Time: 01:40:51
(UTC+02:00)

Tiros 1 - All Passes

Search period start: 15 May 2025 00:00
Search period end: 25 May 2025 00:00
Orbit: 620 x 651 km, 48.4° (Epoch: 14 May)

Date Brightness Start Highest point End Pass type
(mag) Time Alt. Az. Time Alt. Az. Time Alt. Az.
15 May - 00:11:27 10° W 00:16:05 70° S 00:20:46 10° ESE visible
15 May - 01:53:26 10° W 01:57:42 35° SSW 02:01:59 10° SE visible
15 May - 03:37:55 10° SW 03:38:40 10° SW 03:39:25 10° SW night (unlit)
15 May - 19:31:03 10° S 19:33:40 15° SE 19:36:18 10° ESE daylight
15 May - 21:10:26 10° SW 21:14:48 45° SSE 21:19:15 10° E daylight
15 May - 22:51:53 10° W 22:56:31 74° S 23:01:11 10° E visible
16 May - 00:33:45 10° W 00:38:19 56° SSW 00:42:55 10° ESE visible
16 May - 02:16:04 10° W 02:19:40 22° SW 02:23:18 10° SSE visible
16 May - 19:51:45 10° SSW 19:55:32 26° SSE 19:59:22 10° E daylight
16 May - 21:32:25 10° WSW 21:36:58 61° SSE 21:41:34 10° E visible
16 May - 23:14:09 10° W 23:18:47 72° S 23:23:27 10° ESE visible
17 May - 00:56:05 10° W 01:00:26 39° SSW 01:04:49 10° SE visible
17 May - 02:39:31 10° WSW 02:41:30 12° SW 02:43:27 10° SSW visible
17 May - 18:34:31 10° SSE 18:36:30 13° SE 18:38:29 10° ESE daylight
17 May - 20:13:15 10° SW 20:17:33 40° SSE 20:21:53 10° E daylight
17 May - 21:54:35 10° WSW 21:59:12 72° S 22:03:51 10° E visible
17 May - 23:36:26 10° W 23:41:01 60° SSW 23:45:37 10° ESE visible
18 May - 01:18:37 10° W 01:22:26 25° SSW 01:26:17 10° SSE visible
18 May - 18:54:46 10° SSW 18:58:19 22° SE 19:01:54 10° E daylight
18 May - 20:35:10 10° WSW 20:39:40 57° SSE 20:44:14 10° E daylight
18 May - 22:16:50 10° W 22:21:28 73° S 22:26:07 10° E visible
18 May - 23:58:45 10° W 00:03:10 44° SSW 00:07:36 10° SE visible
19 May - 01:41:43 10° WSW 01:44:19 15° SW 01:46:54 10° S visible
19 May - 17:38:33 10° SE 17:39:20 10° SE 17:40:06 10° SE daylight
19 May - 19:16:06 10° SW 19:20:17 36° SSE 19:24:30 10° E daylight
19 May - 20:57:18 10° WSW 21:01:53 70° S 21:06:31 10° E daylight
19 May - 22:39:07 10° W 22:43:42 64° SSW 22:48:19 10° ESE visible
20 May - 00:21:13 10° W 00:25:12 29° SSW 00:29:13 10° SSE visible
20 May - 17:57:51 10° S 18:01:06 19° SE 18:04:23 10° E daylight
20 May - 19:37:55 10° WSW 19:42:22 52° SSE 19:46:53 10° E daylight
20 May - 21:19:32 10° W 21:24:08 74° S 21:28:47 10° E daylight
20 May - 23:01:25 10° W 23:05:53 48° SSW 23:10:22 10° SE visible
21 May - 00:44:04 10° W 00:47:06 17° SW 00:50:08 10° S visible
21 May - 18:18:59 10° SSW 18:23:02 32° SSE 18:27:06 10° E daylight
21 May - 20:00:01 10° WSW 20:04:34 67° S 20:09:10 10° E daylight
21 May - 21:41:48 10° W 21:46:23 67° S 21:51:01 10° ESE visible
21 May - 23:23:49 10° W 23:27:57 32° SSW 23:32:06 10° SSE visible
22 May - 17:01:01 10° S 17:03:54 17° SE 17:06:48 10° E daylight
22 May - 18:40:42 10° SW 18:45:05 47° SSE 18:49:31 10° E daylight
22 May - 20:22:13 10° W 20:26:48 74° S 20:31:27 10° E daylight
22 May - 22:04:05 10° W 22:08:35 52° SSW 22:13:06 10° ESE visible
22 May - 23:46:31 10° W 23:49:53 20° SW 23:53:15 10° S visible
23 May - 17:21:54 10° SSW 17:25:47 28° SSE 17:29:41 10° E daylight
23 May - 19:02:43 10° WSW 19:07:15 63° SSE 19:11:49 10° E daylight
23 May - 20:44:29 10° W 20:49:04 70° S 20:53:41 10° ESE daylight
23 May - 22:26:26 10° W 22:30:40 36° SSW 22:34:56 10° SE visible
24 May - 00:10:32 10° WSW 00:11:39 11° SW 00:12:47 10° SSW visible
24 May - 16:04:18 10° S 16:06:42 14° SE 16:09:05 10° ESE daylight
24 May - 17:43:29 10° SW 17:47:48 43° SSE 17:52:08 10° E daylight
24 May - 19:24:54 10° W 19:29:28 73° S 19:34:05 10° E daylight
24 May - 21:06:45 10° W 21:11:16 57° SSW 21:15:49 10° ESE daylight
24 May - 22:49:01 10° W 22:52:38 23° SW 22:56:16 10° SSE visible
